This is the latest recevied weather packets stored in our database for station/object SR9NLI. If no packets are shown the sender has not sent any weather packets the latest 1 day(s).
| Time | Temp. | Humidity | Pressure | Rain* | Wind** | Luminosity | Snow |
|---|---|---|---|---|---|---|---|
| 1778025459 | 16.11° C | 100% | 948.3 hPa | - | - | - | - |
| 1778025152 | 16.67° C | 100% | 948.3 hPa | - | - | - | - |
| 1778025090 | 16.67° C | 100% | 948.4 hPa | - | - | - | - |
| 1778024844 | 16.67° C | 100% | 948.4 hPa | - | - | - | - |
| 1778024783 | 16.67° C | 100% | 948.3 hPa | - | - | - | - |
| 1778024474 | 16.67° C | 100% | 948.5 hPa | - | - | - | - |
| 1778023982 | 15.56° C | 100% | 948.5 hPa | - | - | - | - |
| 1778023736 | 15° C | 100% | 948.5 hPa | - | - | - | - |
| 1778023366 | 16.11° C | 100% | 948.6 hPa | - | - | - | - |
| 1778023243 | 15.56° C | 100% | 948.8 hPa | - | - | - | - |
| 1778022873 | 13.89° C | 100% | 948.7 hPa | - | - | - | - |
| 1778022626 | 13.89° C | 100% | 948.6 hPa | - | - | - | - |
| 1778022380 | 14.44° C | 100% | 948.5 hPa | - | - | - | - |
| 1778022196 | 15° C | 100% | 948.5 hPa | - | - | - | - |
| 1778021395 | 15.56° C | 100% | 948.5 hPa | - | - | - | - |
| 1778021272 | 15.56° C | 100% | 948.5 hPa | - | - | - | - |
| 1778021149 | 15° C | 100% | 948.6 hPa | - | - | - | - |
| 1778021088 | 15° C | 100% | 948.5 hPa | - | - | - | - |
| 1778021025 | 15° C | 100% | 948.5 hPa | - | - | - | - |
| 1778020287 | 13.89° C | 100% | 948.7 hPa | - | - | - | - |
| 1778019673 | 13.89° C | 100% | 948.7 hPa | - | - | - | - |
| 1778019612 | 13.89° C | 100% | 948.9 hPa | - | - | - | - |
| 1778019550 | 13.89° C | 100% | 948.8 hPa | - | - | - | - |
| 1778019427 | 14.44° C | 100% | 948.9 hPa | - | - | - | - |
| 1778019058 | 14.44° C | 100% | 948.9 hPa | - | - | - | - |
* Rain since midnight (hover to see other rain measurements)
** Current wind speed in m/s (hover to see current wind gust speed)